THORAD AGENA D DEB, 4989

Orbit data source: Space-Track

THORAD AGENA D DEB, 4989 is space debris in SSO originally from a launch on Wed, 08 Apr 1970 UTC launched from the Air Force Western Test Range (AFWTR). Debris objects in space refer to the collection of defunct objects orbiting the Earth. Examples of debris include non-operational satellites, rocket bodies, and fragments generated from explosions, collisions, or faulty payload assembly.

Loading next visibility...
Identifier
4989, 1970-025HK
Orbit
SSO
Country
Flag of USUS
Related business
Manufacturer
Unknown
Mission
Spacecraft
Bus & Motor
Unknown
Mass
Unknown
Launch date (UTC)
1970-04-08 (56 years ago)
Launch vehicle
Unknown
Launch site
Air Force Western Test Range (AFWTR)
Object type
Payload
Rocket body
Debris
Shape & HBR
Unknown shape, 0.1 m
Radar Cross Section
Small (<0.1 m²)

Expand to show TLE details & history
Last TLE update: 17 hours ago

TLE from 17 hours ago
0 THORAD AGENA D DEB
1  4989U 70025HK  26122.59974787  .00001743  00000-0  18275-2 0  9993
2  4989  99.6285 354.5195 0123034 298.0203  89.7527 13.73251853755261
Epoch: 2026-05-02T14:23Z
TLE epoch observation values (Epoch: 2026-05-02T14:23:38.215Z)
Latitude
28.77892°
Longitude
-87.22405°
Altitude
992.12 km
Speed
7.358 km/s
True Right ascension
23h 16m 48s
True Declination
28° 38' 19"
Sunlit
Object was in daylight at epoch
Visualization orbit readout
Latitude
Unknown
Longitude
Unknown
Altitude
Unknown
Speed
Unknown
Apparent Right ascension
Unknown
Apparent Declination
Unknown
Sunlit
N/A
Visualization observer readout
Local Sidereal Time
14:42:27
Azimuth
Unknown
Elevation
Unknown
Doppler factor
Unknown
Orbital elements
Apogee altitude
1,075.779 km
Perigee altitude
894.592 km
Semi-major axis
7,363.323 km
Eccentricity
0.0123
Inclination
99.6285°
RAAN
354.5195°
Arg. of periapsis
298.0203°
True anomaly
91.1625°
Mean anomaly
89.7527°
Eccentric anomaly
90.45761°
Mean motion
3.43505 °/min
Orbital period
104.8 mins
BSTAR
0.0018275
Loading maneuver chart data...
Computing Atmospheric mass density...

Documentation

Showing up to 5 results
|